Simultaneous Nadir Overpasses (SNOs) Predictions

Prediction of SNOs between GOES-16 and NOAA-19 Satellite Orbit:

Table of predicted SNOs for the next 14.0 days since TLE Epoch: 5/21/2022
Index Date Time (GOES-16) GOES-16 Lat,Lon NOAA-19 Lat,Lon Distance(km) Time Diff (sec)
1 05/21/2022 12:57:35 0.05, -75.21 0.68, -78.00 318.03 80
2 05/22/2022 12:43:04 0.05, -75.21 0.05, -75.11 11.86 80
3 05/23/2022 12:31:15 0.05, -75.22 -0.65, -72.23 341.52 80
4 05/26/2022 00:54:31 -0.04, -75.21 -0.50, -77.10 216.09 80
5 05/27/2022 00:40:01 -0.04, -75.22 0.19, -74.22 114.58 80
6 05/28/2022 00:28:11 -0.04, -75.24 0.84, -71.33 445.33 80
7 05/29/2022 13:03:19 0.04, -75.28 0.90, -79.12 437.36 80
8 05/30/2022 12:51:28 0.03, -75.29 0.25, -76.23 106.37 80
9 05/31/2022 12:36:58 0.03, -75.31 -0.41, -73.34 224.72 80
10 06/03/2022 01:00:15 -0.02, -75.33 -0.69, -78.22 331.07 80
11 06/04/2022 00:45:45 -0.01, -75.34 0.02, -75.35 3.31 80
